Regional Weather Roundup
Issued by NWS

Home | Current Version | Previous Version | Graphics & Text | Print | Product List | Glossary On
Versions: 1 2 3 4 5 6 7 8 9 10 11 12 13 14 15 16 17 18 19 20 21 22 23 24 25 26 27 28 29 30 31 32 33 34 35 36 37 38 39 40 41 42 43 44 45 46 47 48 49 50
000
ASUS44 KMEG 300310
RWRTN
TENNESSEE HOURLY STATE WEATHER ROUNDUP
NATIONAL WEATHER SERVICE MEMPHIS TN
1000 PM CDT TUE JUL 29 2014

TNZ002-004-019-021-049-052-054-088>092-300400-
WEST TENNESSEE

CITY           SKY/WX    TMP DP  RH WIND       PRES   REMARKS
MEMPHIS INTL   CLEAR     72  54  53 CALM      30.10R
NWS MEMPHIS      N/A     65 N/A N/A MISG        N/A
JACKSON        CLEAR     62  58  86 CALM      30.10S
DYERSBURG      CLEAR     63  52  67 CALM      30.10S
UNION CITY     CLEAR     63  59  88 CALM      30.09R
PARIS          CLEAR     56  52  86 CALM      30.10S
LEXINGTON      CLEAR     61  57  88 CALM      30.09S
SAVANNAH       CLEAR     59  59 100 CALM      30.10S
$$

TNZ008-025-027-028-033-062-065-066-300400-
NORTH MIDDLE TENNESSEE

CITY           SKY/WX    TMP DP  RH WIND       PRES   REMARKS
NASHVILLE      CLEAR     70  54  56 N5        30.09R
DICKSON        CLEAR     63  55  77 CALM      30.10R
PORTLAND       CLEAR     63  55  77 CALM      30.09R
CLARKSVILLE    CLEAR     66  53  63 CALM      30.09R
LEBANON        CLEAR     64  55  72 CALM      30.08R
SMYRNA         CLEAR     63  56  78 CALM      30.10R
MURFREESBORO   CLEAR     68  57  67 CALM      30.09R
COOKEVILLE     CLEAR     59  57  94 CALM      30.10R
LIVINGSTON       N/A     59  53  80 CALM      30.11
CROSSVILLE     CLEAR     60  54  80 CALM      30.13R
$$

TNZ061-075-076-078-094-096-097-300400-
SOUTH MIDDLE TENNESSEE

CITY           SKY/WX    TMP DP  RH WIND       PRES   REMARKS
LEWISBURG      CLEAR     61  57  86 CALM      30.09R
FAYETTEVILLE   PTCLDY    63  54  72 CALM      30.09S
TULLAHOMA      CLEAR     59  55  88 CALM      30.11R
WINCHESTER     CLEAR     61  57  88 CALM      30.10R
MCMINNVILLE    CLEAR     61  61 100 CALM      30.10S
COLUMBIA       CLEAR     63  59  88 CALM      30.08S
SHELBYVILLE    CLEAR     61  57  88 CALM      30.11R
$$

TNZ017-018-042-046-047-300400-
NORTHEAST TENNESSEE

CITY           SKY/WX    TMP DP  RH WIND       PRES   REMARKS
TRI CITIES     PTCLDY    58  51  78 N3        30.11R
ELIZABETHTON   CLEAR     55  52  88 CALM        N/A
$$

TNZ012-013-036-069-073-074-300400-
CENTRAL EAST TENNESSEE

CITY           SKY/WX    TMP DP  RH WIND       PRES   REMARKS
KNOXVILLE      PTCLDY    64  53  67 NE5       30.09R
OAK RIDGE      CLEAR     63  56  78 CALM      30.11R
GATLINBURG     CLEAR     61  54  77 CALM      30.10R
MORRISTOWN     CLEAR     59  55  88 CALM      30.12R
$$

TNZ083-085-099-300400-
SOUTHEAST TENNESSEE

CITY           SKY/WX    TMP DP  RH WIND       PRES   REMARKS
CHATTANOOGA    CLEAR     66  55  67 NW6       30.08R
$$

SKY/WX REPORTED AS FAIR MEANS FEW OR NO CLOUDS BELOW
12 THOUSAND FEET.




USA.gov is the U.S. government's official web portal to all federal, state and local government web resources and services.